SL-16 DEB, 27690

Orbit data source: Space-Track

SL-16 DEB, 27690 is space debris in SSO originally from a launch on Mon, 10 Dec 2001 UTC launched from the Tyuratam Missile And Space Complex (TTMTR). Debris objects in space refer to the collection of defunct objects orbiting the Earth. Examples of debris include non-operational satellites, rocket bodies, and fragments generated from explosions, collisions, or faulty payload assembly.

Loading next visibility...
Identifier
27690, 2001-056J
Orbit
SSO
Country
Flag of CISCIS
Related business
Manufacturer
Yuzhnoe
Mission
Spacecraft
Bus & Motor
SEP MOTOR COVER, Unknown motor
Mass
~1 kg wet, ~1 kg dry
Launch date (UTC)
2001-12-10 (24 years ago)
Launch vehicle
Unknown
Launch site
Tyuratam Missile And Space Complex (TTMTR)
Object type
Payload
Rocket body
Debris
Shape & HBR
Cone, 0.5 m
Radar Cross Section
0.635 m², Small (<0.1 m²)

Expand to show TLE details & history
Last TLE update: 15 hours ago

TLE from 15 hours ago
0 SL-16 DEB
1 27690U 01056J   25310.18898712  .00000004  00000-0  95104-4 0  9998
2 27690 100.4025 172.3198 0182927  38.3477  81.1215 13.31063946160810
Epoch: 2025-11-06T04:32Z
TLE epoch observation values (Epoch: 2025-11-06T04:32:08.487Z)
Latitude
57.04765°
Longitude
-105.00134°
Altitude
1,133.424 km
Speed
7.301 km/s
True Right ascension
00h 34m 44s
True Declination
56° 53' 54"
Sunlit
Object was in full shadow at epoch
Visualization orbit readout
Latitude
Unknown
Longitude
Unknown
Altitude
Unknown
Speed
Unknown
Apparent Right ascension
Unknown
Apparent Declination
Unknown
Sunlit
N/A
Visualization observer readout
Local Sidereal Time
16:00:41
Azimuth
Unknown
Elevation
Unknown
Doppler factor
Unknown
Orbital elements
Apogee altitude
1,277.644 km
Perigee altitude
1,002.586 km
Semi-major axis
7,518.252 km
Eccentricity
0.01829
Inclination
100.4025°
RAAN
172.3198°
Arg. of periapsis
38.3477°
True anomaly
83.19945°
Mean anomaly
81.1215°
Eccentric anomaly
82.1598°
Mean motion
3.32941 °/min
Orbital period
108.13 mins
BSTAR
0.000095104
Loading maneuver chart data...
Computing Atmospheric mass density...
Loading historical data...
Loading historical data...
Loading historical data...
Loading historical data...
Loading historical data...
Loading historical data...
Loading historical data...

Documentation

Showing up to 5 results
|